Weather History for Monett, MO

Change the Weather History Date:

Friday, November 30, 2012

  Actual Average (KJLN) Record (KJLN)
Temperature  
Mean Temperature 53 °F 42 °F  
Max Temperature 64 °F 52 °F 71 °F (1970)
Min Temperature 42 °F 32 °F 9 °F (1976)
Degree Days  
Heating Degree Days 12 23  
Month to date heating degree days 505  
Since 1 July heating degree days 757  
Cooling Degree Days 0 0  
Month to date cooling degree days 7  
Year to date cooling degree days 1698  
Growing Degree Days 3 (Base 50)    
Moisture  
Dew Point 43 °F    
Average Humidity 68    
Maximum Humidity 94    
Minimum Humidity 57    
Precipitation  
Precipitation 0.00 in 0.12 in 1.33 in (1985)
Month to date precipitation 3.78  
Year to date precipitation 43.73  
Sea Level Pressure  
Sea Level Pressure 30.08 in    
Wind  
Wind Speed 8 mph (South)    
Max Wind Speed 15 mph    
Max Gust Speed 21 mph    
Visibility 10 miles    
Events      
T = Trace of Precipitation, MM = Missing Value Source: NWS Daily Summary

Daily Weather History Graph

Daily Weather History Graph

Search for Another Location

Airport:

Trip Planner

Search our weather history database for the weather conditions in past years. The results will help you decide how hot, cold, wet, or windy it might be!

Date:

Astronomy

Nov. 30, 2012 Rise Set
Actual Time 7:09 AM CST 4:59 PM CST
Civil Twilight 6:41 AM CST 5:28 PM CST
Nautical Twilight 6:09 AM CST 6:00 PM CST
Astronomical Twilight 5:38 AM CST 6:31 PM CST
Moon 6:54 PM CST (11/30) 8:42 AM CST (11/30)
Length of Visible Light 10h 46m
Length of Day
9h 49m
Waning Gibbous, 96% of the Moon is Illuminated
Nov 30
Waning Gibbous
Dec 6
Last Quarter
Dec 13
New
Dec 19
First Quarter
Dec 28
Full

Hourly Weather History & Observations

Time (CST) Temp. Windchill Dew Point Humidity Pressure Visibility Wind Dir Wind Speed Gust Speed Precip Events Conditions
12:15 AM 44.6 °F 40.7 °F 30.2 °F 57% 30.12 in 10.0 mi South 6.9 mph - N/A   Clear
12:35 AM 44.6 °F 40.7 °F 30.2 °F 57% 30.12 in 10.0 mi South 6.9 mph - N/A   Clear
12:55 AM 44.6 °F 40.2 °F 30.2 °F 57% 30.12 in 10.0 mi South 8.1 mph - N/A   Clear
1:15 AM 44.6 °F 42.2 °F 30.2 °F 57% 30.12 in 10.0 mi SSE 4.6 mph - N/A   Clear
1:35 AM 44.6 °F 40.7 °F 30.2 °F 57% 30.11 in 10.0 mi South 6.9 mph - N/A   Clear
1:55 AM 44.6 °F 41.4 °F 30.2 °F 57% 30.11 in 10.0 mi South 5.8 mph - N/A   Clear
2:15 AM 42.8 °F 39.3 °F 30.2 °F 61% 30.10 in 10.0 mi SSE 5.8 mph - N/A   Clear
2:35 AM 42.8 °F 39.3 °F 30.2 °F 61% 30.10 in 10.0 mi SSE 5.8 mph - N/A   Clear
2:55 AM 42.8 °F 40.1 °F 32.0 °F 66% 30.11 in 10.0 mi SSE 4.6 mph - N/A   Clear
3:15 AM 42.8 °F 39.3 °F 32.0 °F 66% 30.11 in 10.0 mi SSE 5.8 mph - N/A   Clear
3:35 AM 44.6 °F 40.7 °F 32.0 °F 61% 30.10 in 10.0 mi South 6.9 mph - N/A   Clear
3:55 AM 44.6 °F 40.2 °F 32.0 °F 61% 30.09 in 10.0 mi South 8.1 mph - N/A   Clear
4:15 AM 46.4 °F 42.9 °F 32.0 °F 57% 30.09 in 10.0 mi South 6.9 mph - N/A   Clear
4:35 AM 46.4 °F 42.4 °F 33.8 °F 62% 30.08 in 10.0 mi South 8.1 mph - N/A   Clear
4:55 AM 46.4 °F 41.9 °F 33.8 °F 62% 30.08 in 10.0 mi South 9.2 mph - N/A   Clear
5:15 AM 46.4 °F 41.9 °F 33.8 °F 62% 30.08 in 10.0 mi South 9.2 mph - N/A   Clear
5:35 AM 46.4 °F 42.4 °F 35.6 °F 66% 30.09 in 10.0 mi South 8.1 mph - N/A   Clear
5:55 AM 46.4 °F 41.5 °F 35.6 °F 66% 30.09 in 10.0 mi SSW 10.4 mph - N/A   Clear
6:15 AM 46.4 °F 41.5 °F 35.6 °F 66% 30.09 in 10.0 mi South 10.4 mph - N/A   Clear
6:35 AM 46.4 °F 41.5 °F 35.6 °F 66% 30.09 in 10.0 mi South 10.4 mph - N/A   Clear
6:55 AM 46.4 °F 41.9 °F 35.6 °F 66% 30.10 in 10.0 mi South 9.2 mph - N/A   Clear
7:15 AM 46.4 °F 41.9 °F 35.6 °F 66% 30.10 in 10.0 mi South 9.2 mph - N/A   Clear
7:35 AM 46.4 °F 42.4 °F 37.4 °F 71% 30.11 in 10.0 mi South 8.1 mph - N/A   Clear
7:55 AM 48.2 °F - 37.4 °F 66% 30.12 in 10.0 mi South 8.1 mph - N/A   Clear
8:15 AM 50.0 °F - 39.2 °F 66% 30.12 in 10.0 mi South 8.1 mph - N/A   Clear
8:35 AM 51.8 °F - 41.0 °F 67% 30.12 in 10.0 mi South 10.4 mph - N/A   Clear
8:55 AM 51.8 °F - 41.0 °F 67% 30.13 in 10.0 mi SSW 9.2 mph - N/A   Clear
9:15 AM 53.6 °F - 42.8 °F 67% 30.12 in 10.0 mi SSW 10.4 mph - N/A   Clear
9:35 AM 55.4 °F - 42.8 °F 63% 30.12 in 10.0 mi SSW 15.0 mph - N/A   Clear
9:55 AM 55.4 °F - 44.6 °F 67% 30.13 in 10.0 mi SSW 11.5 mph - N/A   Clear
10:15 AM 57.2 °F - 46.4 °F 67% 30.13 in 10.0 mi SSW 10.4 mph 20.7 mph N/A   Clear
10:35 AM 59.0 °F - 46.4 °F 63% 30.13 in 10.0 mi SW 12.7 mph - N/A   Clear
10:55 AM 59.0 °F - 46.4 °F 63% 30.12 in 10.0 mi SW 11.5 mph - N/A   Clear
11:15 AM 60.8 °F - 48.2 °F 63% 30.11 in 10.0 mi SSW 11.5 mph - N/A   Clear
11:35 AM 62.6 °F - 50.0 °F 63% 30.10 in 10.0 mi South 13.8 mph - N/A   Clear
11:55 AM 62.6 °F - 50.0 °F 63% 30.08 in 10.0 mi SW 10.4 mph - N/A   Clear
12:15 PM 62.6 °F - 50.0 °F 63% 30.08 in 10.0 mi SSW 10.4 mph - N/A   Clear
12:35 PM 64.4 °F - 50.0 °F 59% 30.07 in 10.0 mi South 8.1 mph - N/A   Clear
12:55 PM 64.4 °F - 50.0 °F 59% 30.07 in 10.0 mi South 8.1 mph - N/A   Clear
1:15 PM 64.4 °F - 50.0 °F 59% 30.06 in 10.0 mi South 8.1 mph - N/A   Clear
1:35 PM 64.4 °F - 50.0 °F 59% 30.06 in 10.0 mi SW 5.8 mph - N/A   Clear
1:55 PM 64.4 °F - 50.0 °F 59% 30.05 in 10.0 mi SSW 6.9 mph - N/A   Clear
2:15 PM 64.4 °F - 50.0 °F 59% 30.05 in 10.0 mi South 6.9 mph - N/A   Clear
2:35 PM 64.4 °F - 50.0 °F 59% 30.04 in 10.0 mi South 6.9 mph - N/A   Clear
2:55 PM 64.4 °F - 51.8 °F 64% 30.04 in 10.0 mi South 8.1 mph - N/A   Clear
3:15 PM 64.4 °F - 50.0 °F 59% 30.04 in 10.0 mi South 5.8 mph - N/A   Clear
3:35 PM 64.4 °F - 50.0 °F 59% 30.05 in 10.0 mi South 9.2 mph - N/A   Clear
3:55 PM 64.4 °F - 50.0 °F 59% 30.05 in 10.0 mi South 9.2 mph - N/A   Clear
4:15 PM 62.6 °F - 50.0 °F 63% 30.05 in 10.0 mi South 9.2 mph - N/A   Clear
4:35 PM 62.6 °F - 50.0 °F 63% 30.05 in 10.0 mi South 4.6 mph - N/A   Clear
4:55 PM 60.8 °F - 50.0 °F 68% 30.05 in 10.0 mi South 8.1 mph - N/A   Clear
5:15 PM 59.0 °F - 50.0 °F 72% 30.05 in 10.0 mi SSE 5.8 mph - N/A   Clear
5:35 PM 59.0 °F - 50.0 °F 72% 30.05 in 10.0 mi SSE 5.8 mph - N/A   Clear
5:55 PM 57.2 °F - 50.0 °F 77% 30.04 in 10.0 mi SSE 6.9 mph - N/A   Clear
6:15 PM 55.4 °F - 50.0 °F 82% 30.05 in 10.0 mi SE 5.8 mph - N/A   Clear
6:35 PM 55.4 °F - 50.0 °F 82% 30.05 in 10.0 mi SSE 6.9 mph - N/A   Clear
6:55 PM 53.6 °F - 48.2 °F 82% 30.05 in 10.0 mi SE 5.8 mph - N/A   Clear
7:15 PM 53.6 °F - 48.2 °F 82% 30.05 in 10.0 mi SE 8.1 mph - N/A   Clear
7:35 PM 53.6 °F - 48.2 °F 82% 30.04 in 10.0 mi SE 9.2 mph - N/A   Clear
7:55 PM 53.6 °F - 48.2 °F 82% 30.04 in 10.0 mi SE 8.1 mph - N/A   Clear
8:15 PM 53.6 °F - 48.2 °F 82% 30.04 in 10.0 mi SE 9.2 mph - N/A   Clear
8:35 PM 53.6 °F - 48.2 °F 82% 30.04 in 10.0 mi SE 8.1 mph - N/A   Clear
8:55 PM 53.6 °F - 48.2 °F 82% 30.05 in 10.0 mi SE 8.1 mph - N/A   Clear
9:15 PM 53.6 °F - 48.2 °F 82% 30.04 in 10.0 mi SE 9.2 mph - N/A   Clear
9:35 PM 53.6 °F - 48.2 °F 82% 30.04 in 10.0 mi SSE 9.2 mph - N/A   Clear
9:55 PM 53.6 °F - 50.0 °F 88% 30.04 in 10.0 mi SSE 9.2 mph - N/A   Clear
10:15 PM 53.6 °F - 50.0 °F 88% 30.05 in 10.0 mi South 8.1 mph - N/A   Clear
10:35 PM 53.6 °F - 50.0 °F 88% 30.05 in 10.0 mi South 8.1 mph - N/A   Clear
10:55 PM 51.8 °F - 50.0 °F 94% 30.06 in 10.0 mi South 6.9 mph - N/A   Clear
11:15 PM 51.8 °F - 50.0 °F 94% 30.06 in 10.0 mi South 6.9 mph - N/A   Clear
11:35 PM 51.8 °F - 50.0 °F 94% 30.05 in 7.0 mi South 5.8 mph - N/A   Clear